This is the latest recevied weather packets stored in our database for station/object DO7ZT-10. If no packets are shown the sender has not sent any weather packets the latest 10 day(s).
| Time | Temp. | Humidity | Pressure | Rain* | Wind** | Luminosity | Snow |
|---|---|---|---|---|---|---|---|
| 1777714394 | 23.89° C | 24% | 1023.6 hPa | - | - | - | - |
| 1777713494 | 23.89° C | 23% | 1023.7 hPa | - | - | - | - |
| 1777712594 | 23.33° C | 25% | 1023.8 hPa | - | - | - | - |
| 1777711694 | 23.33° C | 25% | 1023.9 hPa | - | - | - | - |
| 1777710794 | 22.78° C | 28% | 1024 hPa | - | - | - | - |
| 1777709894 | 22.22° C | 29% | 1024.1 hPa | - | - | - | - |
| 1777708994 | 21.11° C | 32% | 1024.2 hPa | - | - | - | - |
| 1777708094 | 21.11° C | 35% | 1024.2 hPa | - | - | - | - |
| 1777707194 | 20° C | 34% | 1024.4 hPa | - | - | - | - |
| 1777706294 | 19.44° C | 37% | 1024.3 hPa | - | - | - | - |
| 1777705394 | 18.33° C | 36% | 1024.3 hPa | - | - | - | - |
| 1777704493 | 17.78° C | 39% | 1024.3 hPa | - | - | - | - |
| 1777703593 | 17.78° C | 42% | 1024.4 hPa | - | - | - | - |
| 1777702693 | 17.22° C | 41% | 1024.5 hPa | - | - | - | - |
| 1777701793 | 16.11° C | 44% | 1024.5 hPa | - | - | - | - |
| 1777700893 | 15.56° C | 46% | 1024.5 hPa | - | - | - | - |
| 1777699993 | 14.44° C | 53% | 1024.3 hPa | - | - | - | - |
| 1777699093 | 13.33° C | 56% | 1024.4 hPa | - | - | - | - |
| 1777698193 | 12.22° C | 59% | 1024.4 hPa | - | - | - | - |
| 1777697293 | 11.11° C | 63% | 1024.3 hPa | - | - | - | - |
| 1777696393 | 9.44° C | 68% | 1024.2 hPa | - | - | - | - |
| 1777695493 | 9.44° C | 66% | 1024.1 hPa | - | - | - | - |
| 1777694592 | 8.33° C | 70% | 1024.3 hPa | - | - | - | - |
| 1777693692 | 7.78° C | 72% | 1024.4 hPa | - | - | - | - |
| 1777692791 | 7.22° C | 73% | 1024.4 hPa | - | - | - | - |
* Rain since midnight (hover to see other rain measurements)
** Current wind speed in m/s (hover to see current wind gust speed)